Weather History for Davenport, IA

Change the Weather History Date:

Monday, April 14, 2014

  Actual Average Record
Temperature  
Mean Temperature 38 °F 50 °F  
Max Temperature 46 °F 61 °F 86 °F (2003)
Min Temperature 30 °F 39 °F 23 °F (1997)
Degree Days  
Heating Degree Days 27 15  
Month to date heating degree days 253 246  
Since 1 July heating degree days 7153 6104  
Cooling Degree Days 0 0  
Month to date cooling degree days 3 0  
Year to date cooling degree days 3 0  
Moisture  
Dew Point 28 °F    
Average Humidity 79    
Maximum Humidity 89    
Minimum Humidity 69    
Precipitation  
Precipitation 0.08 in 0.10 in 1.87 in (2012)
Month to date precipitation 1.57 1.40  
Year to date precipitation 4.88 6.45  
Snow  
Snow T in - - ()
Month to date snowfall T  
Since 1 July snowfall 50.2  
Snow Depth 0.00 in    
Sea Level Pressure  
Sea Level Pressure 29.95 in    
Wind  
Wind Speed 18 mph (NNW)    
Max Wind Speed 37 mph    
Max Gust Speed 44 mph    
Visibility 7 miles    
Events Snow    
T = Trace of Precipitation, MM = Missing Value Source: NWS Daily Summary

Daily Weather History Graph

Daily Weather History Graph

Search for Another Location

Airport:

Trip Planner

Search our weather history database for the weather conditions in past years. The results will help you decide how hot, cold, wet, or windy it might be!

Date:

Astronomy

Apr. 14, 2014 Rise Set
Actual Time 6:23 AM CDT 7:41 PM CDT
Civil Twilight 5:55 AM CDT 8:10 PM CDT
Nautical Twilight 5:20 AM CDT 8:45 PM CDT
Astronomical Twilight 4:44 AM CDT 9:21 PM CDT
Moon 7:20 PM CDT (4/14) 5:56 AM CDT (4/14)
Length of Visible Light 14h 15m
Length of Day
13h 17m
Full, 100% of the Moon is Illuminated
Apr 14
Full
Apr 15
Full
Apr 22
Last Quarter
Apr 29
New
May 6
First Quarter

Hourly Weather History & Observations

Time (CDT) Temp. Windchill Dew Point Humidity Pressure Visibility Wind Dir Wind Speed Gust Speed Precip Events Conditions
4:52 AM 37.0 °F 25.1 °F 32.0 °F 82% 29.65 in 10.0 mi North 26.5 mph 34.5 mph N/A   Overcast
5:52 AM 37.0 °F 27.0 °F 33.1 °F 86% 29.70 in 10.0 mi North 18.4 mph 27.6 mph N/A   Overcast
6:52 AM 36.0 °F 25.3 °F 32.0 °F 86% 29.77 in 10.0 mi NNW 19.6 mph 27.6 mph N/A   Overcast
7:52 AM 36.0 °F 24.4 °F 30.9 °F 82% 29.83 in 10.0 mi North 23.0 mph 26.5 mph N/A   Overcast
8:52 AM 36.0 °F 25.0 °F 30.9 °F 82% 29.86 in 10.0 mi NNW 20.7 mph - N/A   Overcast
9:52 AM 36.0 °F 24.4 °F 30.0 °F 79% 29.91 in 10.0 mi NNW 23.0 mph - N/A   Overcast
10:52 AM 35.1 °F 23.8 °F 28.9 °F 78% 29.94 in 8.0 mi NNW 20.7 mph - 0.00 in Snow Light Snow
11:52 AM 35.1 °F 23.8 °F 28.9 °F 78% 29.96 in 9.0 mi NNW 20.7 mph - 0.00 in Snow Light Snow
12:27 PM 35.1 °F 23.5 °F 28.9 °F 78% 29.92 in 9.0 mi North 21.9 mph - 0.00 in Snow Light Snow
1:27 PM 35.1 °F 24.1 °F 30.0 °F 82% 29.95 in 2.0 mi NNW 19.6 mph - 0.00 in Snow Light Snow
1:30 PM 35.1 °F 23.8 °F 28.9 °F 78% 29.95 in 1.8 mi NNW 20.7 mph - 0.00 in Snow Light Snow
1:38 PM 34.0 °F 23.4 °F 28.9 °F 82% 29.95 in 1.5 mi NNW 17.3 mph - 0.00 in Snow Light Snow
1:52 PM 34.0 °F 23.0 °F 30.0 °F 85% 29.97 in 1.0 mi NNW 18.4 mph - 0.00 in Snow Light Snow
1:57 PM 34.0 °F 23.0 °F 30.0 °F 85% 29.96 in 0.8 mi NNW 18.4 mph - 0.00 in Snow Light Snow
2:07 PM 34.0 °F 23.0 °F 30.0 °F 85% 29.96 in 1.0 mi NNW 18.4 mph - 0.00 in Snow Light Snow
2:18 PM 35.1 °F 23.8 °F 28.9 °F 78% 29.96 in 3.0 mi NNW 20.7 mph - 0.00 in Snow Light Snow
2:52 PM 35.1 °F 24.8 °F 28.9 °F 78% 29.98 in 4.0 mi NNW 17.3 mph - 0.00 in Snow Light Snow
4:52 PM 34.0 °F 23.0 °F 27.0 °F 75% 29.99 in 10.0 mi NNW 18.4 mph - N/A   Overcast
5:17 PM 35.1 °F 25.5 °F 26.1 °F 70% 29.99 in 10.0 mi NNW 15.0 mph - N/A   Overcast
5:52 PM 35.1 °F 25.9 °F 26.1 °F 70% 30.02 in 10.0 mi NNW 13.8 mph - N/A   Overcast
6:52 PM 35.1 °F 25.5 °F 26.1 °F 70% 30.04 in 10.0 mi NNW 15.0 mph - N/A   Overcast
7:52 PM 34.0 °F 24.2 °F 24.1 °F 67% 30.04 in 10.0 mi NNW 15.0 mph - N/A   Mostly Cloudy
8:52 PM 33.1 °F 23.4 °F 24.1 °F 70% 30.06 in 10.0 mi NNW 13.8 mph - N/A   Overcast
9:52 PM 32.0 °F 24.8 °F 24.1 °F 73% 30.07 in 10.0 mi NW 8.1 mph - N/A   Partly Cloudy
10:52 PM 30.9 °F 22.2 °F 21.9 °F 69% 30.09 in 10.0 mi NW 10.4 mph - N/A   Clear
11:52 PM 30.0 °F 21.1 °F 23.0 °F 75% 30.09 in 10.0 mi NW 10.4 mph - N/A   Clear